GW0059 Weather Reports


time (UTC)temp
C
wind
direction
speed
KPH
gust
KPH
rain 1hr
cm
rain 24hr
cm
rain mn
cm
humidity
%
barometer
mb
20260906080841 22 350 3.2 9.7 0.00 0.00 0.00 93 1006.0
20260906080405 22 41 4.8 9.7 0.00 0.00 0.00 93 1006.0
20260906075828 22 30 3.2 9.7 0.00 0.00 0.00 93 1006.0
20260906075326 22 22 3.2 9.7 0.00 0.00 0.00 93 1006.0
20260906074850 22 37 1.6 9.7 0.00 0.00 0.00 93 1006.0
20260906074353 22 327 1.6 8.0 0.00 0.00 0.00 93 1006.0
20260906073835 22 11 4.8 8.0 0.00 0.00 0.00 93 1006.0
20260906073339 22 344 1.6 6.4 0.00 0.00 0.00 93 1006.0
20260906072904 22 343 3.2 6.4 0.00 0.00 0.00 93 1006.1
20260906072339 22 355 3.2 6.4 0.00 0.00 0.00 93 1006.0
20260906071828 22 5 3.2 9.7 0.00 0.00 0.00 92 1006.1
20260906071332 22 329 3.2 9.7 0.00 0.00 0.00 92 1006.1
20260906070856 22 5 0.0 4.8 0.00 0.00 0.00 92 1006.0
20260906070359 22 355 0.0 4.8 0.00 0.00 0.00 92 1006.0
20260906065842 22 355 1.6 3.2 0.00 0.00 0.00 92 1006.0
20260906065338 22 5 0.0 3.2 0.00 0.00 0.00 92 1006.1
20260906064903 22 13 0.0 3.2 0.00 0.00 0.00 91 1006.0
20260906064346 22 17 0.0 1.6 0.00 0.00 0.00 91 1006.0
20260906063850 22 17 0.0 3.2 0.00 0.00 0.00 91 1006.1
20260906063353 22 17 0.0 3.2 0.00 0.00 0.00 91 1006.1
20260906062835 22 5 0.0 1.6 0.00 0.00 0.00 91 1006.1
20260906062351 22 5 0.0 3.2 0.00 0.00 0.00 91 1006.1
20260906061834 22 5 0.0 3.2 0.00 0.00 0.00 91 1006.2
20260906061359 22 360 1.6 3.2 0.00 0.00 0.00 90 1006.2
20260906060901 22 360 0.0 1.6 0.00 0.00 0.00 90 1006.2
20260906060404 22 360 0.0 1.6 0.00 0.00 0.00 90 1006.2
20260906055848 22 360 0.0 1.6 0.00 0.00 0.00 90 1006.2
20260906055403 22 360 0.0 1.6 0.00 0.00 0.00 89 1006.2
20260906054825 22 360 0.0 1.6 0.00 0.00 0.00 89 1006.2
20260906054330 22 360 0.0 3.2 0.00 0.00 0.00 89 1006.1
20260906053834 22 338 0.0 3.2 0.00 0.00 0.00 89 1006.2
20260906053337 23 355 0.0 1.6 0.00 0.00 0.00 89 1006.0
20260906052825 23 355 0.0 3.2 0.00 0.00 0.00 88 1006.1
20260906052342 23 355 0.0 4.8 0.00 0.00 0.00 88 1006.1
20260906051845 23 5 1.6 4.8 0.00 0.00 0.00 88 1006.1
20260906051348 23 331 0.0 3.2 0.00 0.00 0.00 88 1006.1
20260906050831 23 309 0.0 4.8 0.00 0.00 0.00 88 1006.0
20260906050335 23 355 1.6 4.8 0.00 0.00 0.00 88 1005.9
20260906045859 23 360 1.6 4.8 0.00 0.00 0.00 88 1005.9
20260906045355 23 334 3.2 4.8 0.00 0.00 0.00 87 1005.8
20260906044858 23 5 0.0 4.8 0.00 0.00 0.00 88 1005.8
20260906044401 23 323 1.6 4.8 0.00 0.00 0.00 87 1005.7
20260906043905 23 360 0.0 3.2 0.00 0.00 0.00 87 1005.8
20260906043347 23 306 0.0 3.2 0.00 0.00 0.00 87 1005.7
20260906042830 23 355 0.0 4.8 0.00 0.00 0.00 86 1005.6
20260906042325 24 360 0.0 3.2 0.00 0.00 0.00 86 1005.5
20260906041829 24 355 0.0 1.6 0.00 0.00 0.00 86 1005.4
20260906041333 24 336 0.0 4.8 0.00 0.00 0.00 86 1005.2
20260906040837 24 355 0.0 4.8 0.00 0.00 0.00 85 1005.1
20260906040342 24 13 0.0 3.2 0.00 0.00 0.00 84 1005.1
20260906035830 24 350 0.0 1.6 0.00 0.00 0.00 84 1005.0
20260906035325 24 17 0.0 3.2 0.00 0.00 0.00 83 1005.2
20260906034829 24 323 0.0 3.2 0.00 0.00 0.00 83 1005.2
20260906034353 24 17 0.0 3.2 0.00 0.00 0.00 83 1005.2
20260906033835 24 355 0.0 1.6 0.00 0.00 0.00 82 1005.2
20260906033340 25 53 0.0 3.2 0.00 0.00 0.00 82 1005.2
20260906032904 25 53 0.0 3.2 0.00 0.00 0.00 81 1005.2
20260906032339 25 28 0.0 3.2 0.00 0.00 0.00 81 1005.2
20260906031843 25 5 0.0 3.2 0.00 0.00 0.00 81 1005.3
20260906031348 25 63 0.0 4.8 0.00 0.00 0.00 80 1005.3
20260906030831 25 5 0.0 4.8 0.00 0.00 0.00 80 1005.4
20260906030356 25 5 0.0 4.8 0.00 0.00 0.00 80 1005.4
20260906025858 25 360 0.0 3.2 0.00 0.00 0.00 79 1005.4
20260906025334 25 10 0.0 6.4 0.00 0.00 0.00 79 1005.3
20260906024837 25 19 1.6 6.4 0.00 0.00 0.00 79 1005.3
20260906024341 25 342 0.0 3.2 0.00 0.00 0.00 79 1005.4
20260906023830 26 35 0.0 6.4 0.00 0.00 0.00 79 1005.3
20260906023354 26 316 1.6 6.4 0.00 0.00 0.00 79 1005.5
20260906022837 26 14 0.0 3.2 0.00 0.00 0.00 78 1005.4
20260906022334 26 26 0.0 1.6 0.00 0.00 0.00 79 1005.4
20260906021858 26 5 0.0 1.6 0.00 0.00 0.00 78 1005.4
20260906021341 26 5 0.0 1.6 0.00 0.00 0.00 78 1005.2
20260906020824 26 58 0.0 3.2 0.00 0.00 0.00 78 1005.2
20260906020349 27 355 0.0 3.2 0.00 0.00 0.00 78 1005.2
20260906015852 27 28 0.0 0.0 0.00 0.00 0.00 78 1005.2
20260906015326 27 28 0.0 0.0 0.00 0.00 0.00 77 1005.1
20260906014848 27 28 0.0 1.6 0.00 0.00 0.00 77 1005.1
20260906014351 27 39 0.0 3.2 0.00 0.00 0.00 77 1004.9
20260906013833 27 9 0.0 3.2 0.00 0.00 0.00 77 1004.8
20260906013358 27 62 0.0 1.6 0.00 0.00 0.00 76 1004.6
20260906012841 28 346 0.0 6.4 0.00 0.00 0.00 76 1004.5
20260906012338 28 84 3.2 6.4 0.00 0.00 0.00 76 1004.6
20260906011843 28 57 0.0 1.6 0.00 0.00 0.00 76 1004.5
20260906011326 28 42 0.0 6.4 0.00 0.00 0.00 76 1004.3
20260906010850 29 5 0.0 6.4 0.00 0.00 0.00 75 1004.2
20260906010337 29 355 0.0 12.9 0.00 0.00 0.00 75 1004.1
20260906005901 29 9 1.6 12.9 0.00 0.00 0.00 75 1004.1
20260906005356 30 346 4.8 12.9 0.00 0.00 0.00 74 1004.0
20260906004859 30 319 0.0 3.2 0.00 0.00 0.00 73 1003.8
20260906004403 30 322 0.0 3.2 0.00 0.00 0.00 72 1003.8
20260906003826 30 342 0.0 1.6 0.00 0.00 0.00 72 1003.7
20260906003350 30 355 0.0 4.8 0.00 0.00 0.00 72 1003.6
20260906002832 30 306 1.6 4.8 0.00 0.00 0.00 71 1003.6
20260906002329 30 336 0.0 1.6 0.00 0.00 0.00 70 1003.6
20260906001833 30 5 0.0 0.0 0.00 0.00 0.00 70 1003.7
20260906001337 31 302 0.0 1.6 0.00 0.00 0.00 70 1003.7
20260906000841 31 302 0.0 4.8 0.00 0.00 0.00 70 1003.7
20260906000404 31 302 0.0 4.8 0.00 0.00 0.00 69 1003.7
20260905235826 31 309 0.0 3.2 0.00 0.00 0.00 69 1003.7
20260905235324 31 333 0.0 3.2 0.00 0.00 0.00 69 1003.7
20260905234848 31 281 0.0 0.0 0.00 0.00 0.00 70 1003.7
20260905234352 31 281 0.0 0.0 0.00 0.00 0.00 70 1003.7
20260905233835 31 281 0.0 0.0 0.00 0.00 0.00 70 1003.8
20260905233339 31 281 0.0 0.0 0.00 0.00 0.00 70 1003.8
20260905232847 31 281 0.0 0.0 0.00 0.00 0.00 71 1003.6
20260905232342 31 281 0.0 0.0 0.00 0.00 0.00 71 1003.8
20260905231826 31 281 0.0 0.0 0.00 0.00 0.00 69 1003.9
20260905231329 31 281 0.0 0.0 0.00 0.00 0.00 68 1004.0
20260905230834 31 281 0.0 0.0 0.00 0.00 0.00 68 1004.1
20260905230358 31 281 0.0 0.0 0.00 0.00 0.00 68 1004.0
20260905225901 31 281 0.0 0.0 0.00 0.00 0.00 68 1004.0
20260905225335 31 281 0.0 0.0 0.00 0.03 0.00 68 1003.9
20260905224840 31 281 0.0 0.0 0.00 0.03 0.00 67 1003.7
20260905224344 32 281 0.0 0.0 0.00 0.03 0.00 67 1003.6
20260905223827 32 281 0.0 0.0 0.00 0.03 0.00 66 1003.5
20260905223352 32 281 0.0 0.0 0.00 0.03 0.00 66 1003.4
20260905222835 32 281 0.0 0.0 0.00 0.03 0.00 67 1003.6
20260905222332 32 281 0.0 0.0 0.00 0.03 0.00 66 1003.5
20260905221835 32 281 0.0 0.0 0.00 0.03 0.00 65 1003.3
20260905221400 32 281 0.0 0.0 0.00 0.03 0.00 65 1003.3
20260905220827 32 281 0.0 1.6 0.00 0.03 0.00 64 1003.4
20260905220352 32 281 0.0 1.6 0.00 0.03 0.00 64 1003.5
20260905215854 32 24 0.0 1.6 0.00 0.03 0.00 63 1003.5
20260905215350 32 24 0.0 3.2 0.00 0.03 0.00 63 1003.7
20260905214852 33 343 0.0 3.2 0.00 0.03 0.00 62 1003.7
20260905214356 33 304 0.0 8.0 0.00 0.03 0.00 62 1003.7
20260905213839 33 319 0.0 8.0 0.00 0.03 0.00 61 1003.7
20260905213404 33 296 1.6 6.4 0.00 0.03 0.00 62 1003.5
20260905212847 33 15 1.6 6.4 0.00 0.03 0.00 61 1003.6
20260905212402 33 342 0.0 6.4 0.00 0.03 0.00 60 1003.6
20260905211824 33 158 0.0 3.2 0.00 0.03 0.00 61 1003.6
20260905211328 33 150 1.6 4.8 0.00 0.03 0.00 61 1003.6
20260905210853 33 96 0.0 9.7 0.00 0.03 0.00 60 1003.7
20260905210356 33 344 3.2 6.4 0.00 0.03 0.00 59 1003.7
20260905205839 33 314 1.6 8.0 0.00 0.03 0.00 61 1003.8
20260905205355 33 191 1.6 11.3 0.00 0.03 0.00 61 1004.0
20260905204839 33 5 3.2 12.9 0.00 0.03 0.00 59 1004.0
20260905204403 33 45 6.4 12.9 0.00 0.03 0.00 59 1004.1
20260905203826 33 348 1.6 6.4 0.00 0.03 0.00 60 1004.1
20260905203350 33 318 1.6 8.0 0.00 0.03 0.00 59 1004.1
20260905202833 33 333 0.0 8.0 0.00 0.03 0.00 59 1004.3
20260905202329 33 122 1.6 8.0 0.00 0.03 0.00 61 1004.3
20260905201833 33 222 1.6 3.2 0.00 0.03 0.00 58 1004.2
20260905201357 33 175 0.0 3.2 0.00 0.03 0.00 58 1004.4
20260905200900 33 152 0.0 3.2 0.00 0.03 0.00 59 1004.3
20260905200327 33 200 0.0 3.2 0.00 0.03 0.00 59 1004.4
20260905195851 33 277 0.0 9.7 0.00 0.03 0.00 58 1004.5
20260905195328 33 319 0.0 9.7 0.00 0.03 0.00 58 1004.4
20260905194851 33 336 3.2 8.0 0.00 0.03 0.00 58 1004.6
20260905194355 33 221 0.0 8.0 0.00 0.03 0.00 58 1004.6
20260905193838 33 51 1.6 4.8 0.00 0.03 0.00 58 1004.6
20260905193401 33 26 1.6 4.8 0.00 0.03 0.00 55 1004.7
20260905192825 33 36 1.6 8.0 0.00 0.03 0.00 55 1004.7
20260905192403 33 236 1.6 8.0 0.00 0.03 0.00 57 1004.9
20260905191843 33 355 1.6 6.4 0.00 0.03 0.00 55 1004.8
20260905191326 33 134 0.0 4.8 0.00 0.03 0.00 56 1004.8
20260905190830 33 195 1.6 6.4 0.00 0.03 0.00 57 1004.9
20260905190354 33 170 1.6 6.4 0.00 0.03 0.00 58 1004.9
20260905185836 33 194 0.0 6.4 0.00 0.03 0.00 57 1004.9
20260905185332 33 165 0.0 14.5 0.00 0.03 0.00 56 1005.0
20260905184856 33 245 6.4 14.5 0.00 0.03 0.00 60 1005.1
20260905184339 33 219 0.0 4.8 0.00 0.03 0.00 56 1005.2
20260905183826 33 234 1.6 4.8 0.00 0.03 0.00 57 1005.3
20260905183351 33 186 3.2 4.8 0.00 0.03 0.00 57 1005.3
20260905182834 33 197 1.6 6.4 0.00 0.03 0.00 57 1005.5
20260905182350 33 186 1.6 9.7 0.00 0.03 0.00 57 1005.5
20260905181833 33 182 1.6 8.0 0.00 0.03 0.00 56 1005.5
20260905181359 33 179 4.8 17.7 0.00 0.03 0.00 58 1005.5
20260905180842 33 192 8.0 17.7 0.00 0.03 0.00 57 1005.4
20260905180345 33 217 3.2 6.4 0.00 0.03 0.00 56 1005.5
20260905175829 33 204 1.6 11.3 0.00 0.03 0.00 57 1005.5
20260905175326 32 211 3.2 11.3 0.00 0.03 0.00 57 1005.5
20260905174850 33 169 4.8 8.0 0.00 0.03 0.00 57 1005.6
20260905174352 33 193 3.2 6.4 0.00 0.03 0.00 58 1005.7
20260905173856 32 194 3.2 9.7 0.00 0.03 0.00 57 1005.9
20260905173400 32 195 4.8 12.9 0.00 0.03 0.00 58 1005.9
20260905172842 32 197 6.4 14.5 0.00 0.03 0.00 60 1006.0
20260905172339 32 144 8.0 14.5 0.00 0.03 0.00 57 1006.0
20260905171902 32 198 3.2 12.9 0.00 0.03 0.00 58 1006.2
20260905171345 32 180 4.8 12.9 0.00 0.03 0.00 59 1006.2
20260905170829 32 208 3.2 6.4 0.00 0.03 0.00 59 1006.3
20260905170334 32 205 3.2 11.3 0.00 0.03 0.00 60 1006.3
20260905165838 32 138 4.8 11.3 0.00 0.03 0.00 58 1006.5
20260905165355 32 188 4.8 6.4 0.00 0.03 0.00 58 1006.5
20260905164859 32 209 3.2 6.4 0.00 0.03 0.00 60 1006.6
20260905164346 31 205 1.6 6.4 0.00 0.03 0.00 61 1006.6
20260905163849 31 227 1.6 4.8 0.00 0.03 0.00 60 1006.7
20260905163352 31 199 1.6 4.8 0.00 0.03 0.00 60 1006.7
20260905162835 31 216 3.2 4.8 0.00 0.03 0.00 61 1006.7
20260905162330 31 196 3.2 4.8 0.00 0.03 0.00 59 1006.5
20260905161835 30 200 3.2 8.0 0.00 0.03 0.00 61 1006.6
20260905161339 30 234 3.2 8.0 0.00 0.03 0.00 61 1006.5
20260905160902 30 213 4.8 11.3 0.00 0.03 0.00 62 1006.7
20260905160325 30 149 6.4 11.3 0.00 0.03 0.00 61 1006.6
20260905155829 30 204 4.8 9.7 0.00 0.03 0.00 62 1006.8
20260905155347 30 199 4.8 11.3 0.00 0.03 0.00 62 1006.9
20260905154850 30 211 3.2 11.3 0.00 0.03 0.00 63 1006.9
20260905154354 30 202 1.6 4.8 0.00 0.03 0.00 63 1006.9
20260905153857 30 185 1.6 4.8 0.00 0.03 0.00 62 1006.9
20260905153339 30 205 1.6 4.8 0.00 0.03 0.00 61 1006.8
20260905152843 30 225 3.2 4.8 0.00 0.03 0.00 62 1006.8
20260905152400 30 175 1.6 12.9 0.00 0.03 0.00 63 1006.8
20260905151903 29 196 4.8 12.9 0.00 0.03 0.00 63 1006.9
20260905151326 29 202 4.8 6.4 0.00 0.03 0.00 63 1007.0
20260905150850 29 180 3.2 14.5 0.00 0.03 0.00 62 1007.0
20260905150353 28 120 8.0 14.5 0.00 0.03 0.00 61 1007.0
20260905145856 28 197 1.6 12.9 0.00 0.03 0.00 65 1006.9
20260905145352 28 163 4.8 12.9 0.00 0.03 0.00 64 1007.1
20260905144836 28 165 8.0 12.9 0.00 0.03 0.00 64 1007.1
20260905144324 28 187 4.8 12.9 0.00 0.03 0.00 65 1007.1
20260905143829 27 184 6.4 12.9 0.00 0.03 0.00 65 1007.2
20260905143332 27 185 3.2 17.7 0.00 0.03 0.00 68 1007.3
20260905142857 27 185 6.4 17.7 0.00 0.03 0.00 67 1007.2
20260905142334 27 186 4.8 12.9 0.00 0.03 0.00 68 1007.2
20260905141845 27 167 3.2 16.1 0.00 0.03 0.00 68 1007.4
20260905141335 26 160 8.0 16.1 0.00 0.03 0.00 67 1007.5
20260905140857 26 154 4.8 12.9 0.00 0.03 0.00 70 1007.5
20260905140333 26 198 6.4 12.9 0.00 0.03 0.00 70 1007.4
20260905135852 26 142 1.6 12.9 0.00 0.03 0.00 74 1007.5
20260905135354 25 157 6.4 16.1 0.00 0.03 0.00 70 1007.5